| time (UTC) | temp F | wind direction | speed MPH | gust MPH | rain 1hr in | rain 24hr in | rain mn in | humidity % | barometer mb |
| 20260505124830 | 71 | 160 | 3.0 | 11.0 | 0.00 | 0.00 | 0.00 | 89 | 1005.0 |
| 20260505123805 | 71 | 158 | 2.0 | 5.0 | 0.00 | 0.00 | 0.00 | 89 | 1004.7 |
| 20260505122840 | 71 | 156 | 4.0 | 9.0 | 0.00 | 0.00 | 0.00 | 89 | 1005.0 |
| 20260505121827 | 71 | 176 | 3.0 | 8.0 | 0.00 | 0.00 | 0.00 | 89 | 1004.7 |
| 20260505120831 | 71 | 181 | 3.0 | 6.0 | 0.00 | 0.00 | 0.00 | 89 | 1004.7 |
| 20260505115825 | 71 | 157 | 2.0 | 5.0 | 0.00 | 0.00 | 0.00 | 89 | 1004.7 |
| 20260505114849 | 70 | 172 | 2.0 | 6.0 | 0.00 | 0.00 | 0.00 | 90 | 1004.3 |
| 20260505113825 | 71 | 157 | 4.0 | 8.0 | 0.00 | 0.00 | 0.00 | 89 | 1004.7 |
| 20260505112810 | 71 | 157 | 4.0 | 6.0 | 0.00 | 0.00 | 0.00 | 89 | 1004.7 |
| 20260505111847 | 70 | 150 | 4.0 | 9.0 | 0.00 | 0.00 | 0.00 | 90 | 1004.7 |
| 20260505110843 | 70 | 152 | 2.0 | 6.0 | 0.00 | 0.00 | 0.00 | 90 | 1004.0 |
| 20260505101825 | 70 | 153 | 4.0 | 8.0 | 0.00 | 0.00 | 0.00 | 90 | 1004.0 |
| 20260505100845 | 70 | 164 | 2.0 | 8.0 | 0.00 | 0.00 | 0.00 | 90 | 1004.3 |
| 20260505095835 | 70 | 160 | 4.0 | 7.0 | 0.00 | 0.00 | 0.00 | 90 | 1004.3 |
| 20260505094839 | 70 | 154 | 3.0 | 6.0 | 0.00 | 0.00 | 0.00 | 90 | 1004.3 |
| 20260505093828 | 70 | 157 | 4.0 | 5.0 | 0.00 | 0.00 | 0.00 | 90 | 1004.3 |
| 20260505092819 | 70 | 164 | 3.0 | 7.0 | 0.00 | 0.00 | 0.00 | 90 | 1004.3 |
| 20260505091837 | 70 | 157 | 4.0 | 7.0 | 0.00 | 0.00 | 0.00 | 90 | 1004.7 |
| 20260505090820 | 70 | 158 | 5.0 | 9.0 | 0.00 | 0.00 | 0.00 | 89 | 1005.0 |
| 20260505085844 | 70 | 163 | 4.0 | 7.0 | 0.00 | 0.00 | 0.00 | 89 | 1005.0 |
| 20260505084835 | 70 | 158 | 4.0 | 7.0 | 0.00 | 0.00 | 0.00 | 89 | 1005.0 |
| 20260505083838 | 70 | 173 | 3.0 | 8.0 | 0.00 | 0.00 | 0.00 | 88 | 1005.0 |
| 20260505082835 | 71 | 160 | 5.0 | 10.0 | 0.00 | 0.00 | 0.00 | 87 | 1005.0 |
| 20260505081842 | 71 | 150 | 3.0 | 8.0 | 0.00 | 0.00 | 0.00 | 87 | 1005.0 |
| 20260505080822 | 71 | 159 | 4.0 | 8.0 | 0.00 | 0.00 | 0.00 | 86 | 1005.0 |
| 20260505074839 | 72 | 153 | 4.0 | 10.0 | 0.00 | 0.00 | 0.00 | 84 | 1005.0 |
| 20260505073816 | 72 | 168 | 5.0 | 10.0 | 0.00 | 0.00 | 0.00 | 83 | 1005.4 |
| 20260505072813 | 72 | 165 | 3.0 | 8.0 | 0.00 | 0.00 | 0.00 | 82 | 1005.4 |
| 20260505070837 | 72 | 156 | 4.0 | 10.0 | 0.00 | 0.00 | 0.00 | 81 | 1005.7 |
| 20260505065837 | 72 | 154 | 5.0 | 9.0 | 0.00 | 0.00 | 0.00 | 81 | 1005.7 |
| 20260505064816 | 72 | 148 | 3.0 | 8.0 | 0.00 | 0.00 | 0.00 | 80 | 1006.0 |
| 20260505063837 | 72 | 158 | 4.0 | 9.0 | 0.00 | 0.00 | 0.00 | 80 | 1006.0 |
| 20260505061827 | 73 | 160 | 3.0 | 6.0 | 0.00 | 0.00 | 0.00 | 79 | 1006.0 |
| 20260505055805 | 73 | 154 | 4.0 | 9.0 | 0.00 | 0.00 | 0.00 | 78 | 1006.4 |
| 20260505054838 | 73 | 162 | 4.0 | 9.0 | 0.00 | 0.00 | 0.00 | 78 | 1006.0 |
| 20260505053831 | 73 | 155 | 4.0 | 8.0 | 0.00 | 0.00 | 0.00 | 77 | 1006.4 |
| 20260505052821 | 74 | 160 | 4.0 | 7.0 | 0.00 | 0.00 | 0.00 | 77 | 1006.0 |
| 20260505051830 | 74 | 160 | 4.0 | 8.0 | 0.00 | 0.00 | 0.00 | 77 | 1006.0 |
| 20260505050818 | 74 | 158 | 5.0 | 10.0 | 0.00 | 0.00 | 0.00 | 77 | 1006.0 |
| 20260505040839 | 75 | 158 | 5.0 | 12.0 | 0.00 | 0.00 | 0.00 | 75 | 1006.4 |
| 20260505035822 | 75 | 166 | 4.0 | 10.0 | 0.00 | 0.00 | 0.00 | 75 | 1006.4 |
| 20260505034841 | 76 | 163 | 4.0 | 8.0 | 0.00 | 0.00 | 0.00 | 74 | 1006.0 |
| 20260505033816 | 76 | 162 | 5.0 | 7.0 | 0.00 | 0.00 | 0.00 | 74 | 1006.4 |
| 20260505032812 | 76 | 161 | 3.0 | 6.0 | 0.00 | 0.00 | 0.00 | 73 | 1006.0 |
| 20260505031823 | 76 | 159 | 4.0 | 11.0 | 0.00 | 0.00 | 0.00 | 72 | 1006.0 |
| 20260505030823 | 76 | 153 | 5.0 | 11.0 | 0.00 | 0.00 | 0.00 | 72 | 1006.0 |
| 20260505025845 | 76 | 161 | 3.0 | 8.0 | 0.00 | 0.00 | 0.00 | 72 | 1006.4 |
| 20260505024823 | 76 | 147 | 3.0 | 6.0 | 0.00 | 0.00 | 0.00 | 72 | 1006.4 |
| 20260505023808 | 77 | 160 | 4.0 | 10.0 | 0.00 | 0.00 | 0.00 | 71 | 1006.4 |
| 20260505021807 | 77 | 156 | 4.0 | 7.0 | 0.00 | 0.00 | 0.00 | 71 | 1006.4 |
| 20260505020819 | 77 | 158 | 3.0 | 6.0 | 0.00 | 0.00 | 0.00 | 71 | 1006.0 |
| 20260505014808 | 77 | 166 | 3.0 | 8.0 | 0.00 | 0.00 | 0.00 | 70 | 1005.7 |
| 20260505013835 | 77 | 157 | 3.0 | 6.0 | 0.00 | 0.00 | 0.00 | 69 | 1006.0 |
| 20260505012849 | 77 | 157 | 2.0 | 4.0 | 0.00 | 0.00 | 0.00 | 70 | 1006.0 |
| 20260505011815 | 77 | 151 | 2.0 | 5.0 | 0.00 | 0.00 | 0.00 | 69 | 1006.0 |
| 20260505010815 | 77 | 158 | 3.0 | 4.0 | 0.00 | 0.00 | 0.00 | 69 | 1006.0 |
| 20260505004805 | 78 | 162 | 4.0 | 8.0 | 0.00 | 0.00 | 0.00 | 67 | 1006.0 |
| 20260505003825 | 78 | 168 | 3.0 | 7.0 | 0.00 | 0.00 | 0.00 | 67 | 1006.4 |
| 20260505002826 | 79 | 157 | 5.0 | 9.0 | 0.00 | 0.00 | 0.00 | 66 | 1006.0 |
| 20260505001808 | 79 | 165 | 4.0 | 8.0 | 0.00 | 0.00 | 0.00 | 66 | 1006.0 |
| 20260505000837 | 79 | 169 | 3.0 | 7.0 | 0.00 | 0.00 | 0.00 | 65 | 1006.4 |
| 20260504234826 | 80 | 157 | 4.0 | 9.0 | 0.00 | 0.00 | 0.00 | 64 | 1006.7 |
| 20260504233822 | 80 | 170 | 4.0 | 8.0 | 0.00 | 0.00 | 0.00 | 62 | 1006.7 |
| 20260504232812 | 81 | 181 | 4.0 | 9.0 | 0.00 | 0.00 | 0.00 | 62 | 1006.4 |
| 20260504230806 | 81 | 161 | 5.0 | 10.0 | 0.00 | 0.00 | 0.00 | 62 | 1006.7 |
| 20260504225839 | 81 | 162 | 5.0 | 8.0 | 0.00 | 0.00 | 0.00 | 61 | 1006.7 |
| 20260504224846 | 81 | 161 | 6.0 | 10.0 | 0.00 | 0.00 | 0.00 | 61 | 1007.1 |
| 20260504223839 | 81 | 178 | 4.0 | 8.0 | 0.00 | 0.00 | 0.00 | 59 | 1007.1 |
| 20260504221806 | 81 | 165 | 6.0 | 11.0 | 0.00 | 0.00 | 0.00 | 59 | 1007.1 |
| 20260504220808 | 81 | 153 | 5.0 | 10.0 | 0.00 | 0.00 | 0.00 | 59 | 1007.4 |
| 20260504215808 | 81 | 157 | 5.0 | 10.0 | 0.00 | 0.00 | 0.00 | 59 | 1007.1 |
| 20260504214824 | 81 | 166 | 6.0 | 11.0 | 0.00 | 0.00 | 0.00 | 60 | 1007.4 |
| 20260504213815 | 82 | 158 | 4.0 | 8.0 | 0.00 | 0.00 | 0.00 | 59 | 1007.4 |
| 20260504211819 | 82 | 166 | 6.0 | 10.0 | 0.00 | 0.00 | 0.00 | 58 | 1007.7 |
| 20260504210842 | 82 | 165 | 5.0 | 10.0 | 0.00 | 0.00 | 0.00 | 58 | 1007.7 |
| 20260504205826 | 82 | 165 | 5.0 | 16.0 | 0.00 | 0.00 | 0.00 | 57 | 1008.1 |
| 20260504204813 | 83 | 173 | 3.0 | 6.0 | 0.00 | 0.00 | 0.00 | 56 | 1008.1 |
| 20260504203828 | 83 | 163 | 6.0 | 9.0 | 0.00 | 0.00 | 0.00 | 57 | 1008.4 |
| 20260504202835 | 82 | 166 | 4.0 | 10.0 | 0.00 | 0.00 | 0.00 | 57 | 1008.4 |
| 20260504200814 | 82 | 159 | 6.0 | 9.0 | 0.00 | 0.00 | 0.00 | 57 | 1008.8 |
| 20260504195824 | 82 | 166 | 5.0 | 10.0 | 0.00 | 0.00 | 0.00 | 58 | 1009.4 |
| 20260504194814 | 82 | 163 | 5.0 | 9.0 | 0.00 | 0.00 | 0.00 | 58 | 1009.8 |
| 20260504193816 | 82 | 167 | 4.0 | 8.0 | 0.00 | 0.00 | 0.00 | 58 | 1009.4 |
| 20260504191838 | 80 | 163 | 4.0 | 9.0 | 0.00 | 0.00 | 0.00 | 61 | 1009.8 |
| 20260504184817 | 80 | 155 | 5.0 | 9.0 | 0.00 | 0.00 | 0.00 | 60 | 1010.1 |
| 20260504183830 | 79 | 157 | 6.0 | 11.0 | 0.00 | 0.00 | 0.00 | 59 | 1010.4 |
| 20260504182832 | 79 | 161 | 5.0 | 11.0 | 0.00 | 0.00 | 0.00 | 61 | 1010.4 |
| 20260504181836 | 79 | 161 | 4.0 | 7.0 | 0.00 | 0.00 | 0.00 | 59 | 1010.4 |
| 20260504175841 | 78 | 172 | 6.0 | 12.0 | 0.00 | 0.00 | 0.00 | 60 | 1011.1 |
| 20260504173834 | 78 | 164 | 4.0 | 10.0 | 0.00 | 0.00 | 0.00 | 60 | 1011.5 |
| 20260504171841 | 77 | 165 | 5.0 | 9.0 | 0.00 | 0.00 | 0.00 | 62 | 1011.5 |
| 20260504150810 | 70 | 166 | 6.0 | 10.0 | 0.00 | 0.00 | 0.00 | 68 | 1012.8 |
| 20260504140832 | 68 | 162 | 6.0 | 10.0 | 0.00 | 0.00 | 0.00 | 74 | 1012.8 |